contact:dominique.lefevre@mio.osupytheas.fr, maurice.libes@osupytheas.fr, didier.mallarino@osupytheas.fr
Project:EMSO http://www.emso-fr.org/EMSO-France
Depth: 2436.0 m
Title:EMSO Ligure Ouest : Data MII capteur AQUADOPP
Date,Latitude,Longitude,X_East,Y_North,Z_Up,Amplitude_X,Amplitude_Y,Amplitude_Z,Batterie,SoundSpeed,Heading,Pitch,Roll,Pressure,TIS,Speed,Direction
, degrees North, degrees East, m.s-1, m.s-1,m.s-1, 1, 1, 1, Volt, m.s-1, degree, degree, degree, dbar, degree_C, m.s-1, degree
2019-09-21T00:09:04,42.805,6.029,-0.013,0.014,-0.034,101.0,110.0,100.0,13.3,1505.2,327.3,-0.8,1.8,2470.225,13.3,0.019,317.1
2019-09-21T00:12:05,42.805,6.029,-0.004,0.002,-0.015,102.0,109.0,100.0,13.4,1505.3,325.0,-0.7,1.8,2470.171,13.31,0.004,296.6
2019-09-21T00:15:06,42.805,6.029,-0.043,0.001,-0.002,101.0,109.0,99.0,13.3,1505.3,327.1,-0.8,1.8,2470.166,13.32,0.043,271.3
2019-09-21T00:18:07,42.805,6.029,-0.033,-0.011,-0.046,102.0,108.0,99.0,13.4,1505.3,325.9,-0.7,1.8,2470.167,13.32,0.034,251.6
2019-09-21T00:21:08,42.805,6.029,-0.028,0.001,-0.016,102.0,108.0,101.0,13.4,1505.3,326.4,-0.7,1.8,2470.18,13.33,0.028,272.0
2019-09-21T00:24:09,42.805,6.029,-0.045,-0.006,-0.028,103.0,110.0,99.0,13.3,1505.3,327.5,-0.7,1.8,2470.131,13.33,0.045,262.4
2019-09-21T00:27:10,42.805,6.029,-0.022,-0.012,-0.036,101.0,108.0,100.0,13.4,1505.3,328.5,-0.7,1.9,2470.184,13.33,0.025,241.4
2019-09-21T00:30:11,42.805,6.029,-0.009,-0.016,0.018,101.0,108.0,99.0,13.4,1505.3,327.4,-0.7,1.8,2470.106,13.33,0.018,209.4
2019-09-21T00:33:12,42.805,6.029,-0.053,0.014,0.023,102.0,108.0,99.0,13.4,1505.3,328.4,-0.7,1.9,2470.162,13.33,0.054,284.8
2019-09-21T00:36:13,42.805,6.029,-0.063,0.006,-0.011,102.0,109.0,100.0,13.4,1505.3,325.4,-0.7,1.8,2470.14,13.33,0.063,275.4
2019-09-21T00:39:14,42.805,6.029,-0.049,-0.005,-0.036,102.0,108.0,99.0,13.4,1505.3,323.5,-0.7,1.8,2470.13,13.33,0.049,264.2
2019-09-21T00:42:15,42.805,6.029,-0.033,0.014,-0.001,104.0,107.0,100.0,13.4,1505.3,324.4,-0.7,1.8,2470.171,13.33,0.035,293.0
2019-09-21T00:45:16,42.805,6.029,-0.026,-0.011,-0.001,103.0,108.0,99.0,13.4,1505.4,326.8,-0.7,1.8,2470.11,13.34,0.028,247.1
2019-09-21T00:48:17,42.805,6.029,-0.022,0.015,0.01,101.0,108.0,99.0,13.4,1505.4,324.6,-0.7,1.8,2470.111,13.34,0.026,304.3
2019-09-21T00:51:18,42.805,6.029,-0.027,-0.005,0.001,103.0,110.0,99.0,13.3,1505.4,325.1,-0.7,1.8,2470.1,13.34,0.027,259.5
2019-09-21T00:54:19,42.805,6.029,-0.013,-0.01,0.004,101.0,111.0,99.0,13.4,1505.4,328.5,-0.7,1.8,2470.124,13.34,0.016,232.4
2019-09-21T00:57:20,42.805,6.029,-0.016,0.011,0.012,101.0,109.0,99.0,13.3,1505.4,323.9,-0.7,1.9,2470.128,13.34,0.019,304.5
2019-09-21T01:00:21,42.805,6.029,-0.029,0.016,-0.03,105.0,108.0,100.0,13.4,1505.4,326.0,-0.7,1.8,2470.1,13.34,0.033,298.9
2019-09-21T01:03:22,42.805,6.029,-0.03,0.004,-0.01,103.0,109.0,100.0,13.4,1505.4,327.5,-0.7,1.8,2470.089,13.34,0.03,277.6
2019-09-21T01:06:23,42.805,6.029,-0.035,0.0,-0.008,102.0,109.0,99.0,13.3,1505.4,326.9,-0.7,1.8,2470.085,13.34,0.035,270.0
2019-09-21T01:09:24,42.805,6.029,-0.035,-0.011,-0.017,103.0,109.0,99.0,13.3,1505.4,326.7,-0.7,1.8,2470.115,13.34,0.036,252.6
2019-09-21T01:12:25,42.805,6.029,-0.048,0.006,-0.015,102.0,109.0,99.0,13.4,1505.4,326.6,-0.7,1.8,2470.109,13.34,0.048,277.1
2019-09-21T01:15:26,42.805,6.029,-0.012,-0.002,-0.024,104.0,107.0,99.0,13.4,1505.4,326.3,-0.7,1.9,2470.089,13.34,0.012,260.5
2019-09-21T01:18:27,42.805,6.029,-0.028,0.019,0.004,101.0,108.0,99.0,13.3,1505.4,327.0,-0.7,1.8,2470.102,13.34,0.033,304.2
2019-09-21T01:21:28,42.805,6.029,-0.016,0.018,0.013,102.0,107.0,100.0,13.4,1505.4,326.8,-0.7,1.8,2470.128,13.34,0.024,318.4
2019-09-21T01:24:29,42.805,6.029,-0.03,0.001,-0.009,102.0,109.0,101.0,13.4,1505.4,326.0,-0.7,1.8,2470.1,13.34,0.03,271.9
2019-09-21T01:27:30,42.805,6.029,-0.035,-0.022,-0.018,102.0,109.0,100.0,13.4,1505.4,327.1,-0.7,1.9,2470.12,13.34,0.041,237.8
2019-09-21T01:30:31,42.805,6.029,-0.021,-0.011,-0.02,103.0,109.0,99.0,13.4,1505.4,326.9,-0.7,1.8,2470.105,13.34,0.023,242.4
2019-09-21T01:33:32,42.805,6.029,-0.023,0.005,0.008,104.0,108.0,100.0,13.4,1505.4,322.9,-0.7,1.8,2470.076,13.34,0.023,282.3
2019-09-21T01:36:33,42.805,6.029,-0.053,0.009,0.0,103.0,108.0,100.0,13.4,1505.4,327.8,-0.7,1.8,2470.057,13.34,0.053,279.6
2019-09-21T01:39:34,42.805,6.029,-0.052,-0.003,-0.052,103.0,109.0,100.0,13.4,1505.4,324.4,-0.7,1.8,2470.089,13.34,0.052,266.7
2019-09-21T01:42:35,42.805,6.029,-0.045,0.005,-0.014,102.0,108.0,99.0,13.4,1505.4,326.3,-0.7,1.8,2470.072,13.34,0.045,276.3
2019-09-21T01:45:36,42.805,6.029,-0.055,-0.024,0.004,103.0,109.0,100.0,13.4,1505.4,326.6,-0.7,1.8,2470.089,13.34,0.06,246.4
2019-09-21T01:48:37,42.805,6.029,-0.041,0.005,-0.032,104.0,109.0,98.0,13.3,1505.4,325.8,-0.7,1.8,2470.122,13.34,0.041,277.0
2019-09-21T01:51:38,42.805,6.029,-0.04,0.013,-0.043,103.0,110.0,99.0,13.4,1505.4,325.2,-0.7,1.8,2470.042,13.34,0.042,288.0
2019-09-21T01:54:39,42.805,6.029,-0.048,0.002,-0.03,105.0,110.0,100.0,13.3,1505.4,323.2,-0.7,1.8,2470.046,13.34,0.048,272.4
2019-09-21T01:57:40,42.805,6.029,-0.028,-0.004,0.017,102.0,111.0,100.0,13.4,1505.4,325.1,-0.7,1.9,2470.039,13.34,0.028,261.9
2019-09-21T02:00:41,42.805,6.029,-0.033,0.0,0.001,102.0,110.0,99.0,13.4,1505.4,327.8,-0.7,1.8,2470.08,13.34,0.033,270.0
2019-09-21T02:03:42,42.805,6.029,-0.027,-0.004,-0.018,102.0,109.0,100.0,13.4,1505.4,324.5,-0.7,1.8,2470.034,13.34,0.027,261.6
2019-09-21T02:06:43,42.805,6.029,-0.038,-0.003,-0.02,102.0,110.0,99.0,13.3,1505.4,326.6,-0.7,1.9,2470.081,13.34,0.038,265.5
2019-09-21T02:09:44,42.805,6.029,-0.037,0.011,-0.004,105.0,108.0,100.0,13.4,1505.4,323.3,-0.7,1.8,2470.048,13.34,0.038,286.6
2019-09-21T02:12:45,42.805,6.029,-0.036,0.003,-0.017,104.0,110.0,100.0,13.4,1505.4,325.5,-0.7,1.8,2470.035,13.34,0.036,274.8
2019-09-21T02:15:46,42.805,6.029,-0.014,0.003,0.002,104.0,108.0,101.0,13.4,1505.4,324.5,-0.7,1.8,2470.043,13.34,0.014,282.1
2019-09-21T02:18:47,42.805,6.029,-0.041,-0.024,-0.038,102.0,110.0,99.0,13.4,1505.4,324.5,-0.7,1.8,2470.096,13.34,0.047,239.7
2019-09-21T02:21:48,42.805,6.029,-0.037,0.0,0.014,102.0,109.0,99.0,13.3,1505.4,324.2,-0.7,1.8,2470.072,13.34,0.037,270.0
2019-09-21T02:24:49,42.805,6.029,-0.034,-0.005,0.002,102.0,109.0,100.0,13.3,1505.4,324.7,-0.7,1.8,2470.067,13.34,0.034,261.6
2019-09-21T02:27:50,42.805,6.029,-0.015,-0.004,-0.002,106.0,108.0,100.0,13.4,1505.4,327.2,-0.7,1.8,2470.016,13.34,0.015,255.1
2019-09-21T02:30:51,42.805,6.029,-0.049,0.002,-0.03,103.0,109.0,101.0,13.4,1505.4,326.6,-0.7,1.8,2470.048,13.34,0.049,272.3
2019-09-21T02:33:52,42.805,6.029,-0.009,0.013,0.033,102.0,108.0,100.0,13.4,1505.4,323.3,-0.7,1.8,2470.074,13.34,0.015,325.3
2019-09-21T02:36:53,42.805,6.029,-0.006,-0.013,0.005,102.0,109.0,98.0,13.4,1505.4,328.3,-0.7,1.8,2470.056,13.34,0.014,204.8
2019-09-21T02:39:54,42.805,6.029,-0.051,0.007,-0.021,101.0,109.0,100.0,13.3,1505.4,325.4,-0.7,1.8,2470.074,13.34,0.051,277.8
2019-09-21T02:42:55,42.805,6.029,-0.04,0.008,-0.011,105.0,109.0,100.0,13.4,1505.4,326.5,-0.7,1.8,2470.056,13.34,0.04,281.3
2019-09-21T02:45:56,42.805,6.029,-0.022,0.007,0.01,101.0,109.0,100.0,13.4,1505.4,325.1,-0.7,1.8,2470.071,13.34,0.023,287.6
2019-09-21T02:48:57,42.805,6.029,-0.008,-0.009,-0.005,102.0,108.0,100.0,13.4,1505.4,328.1,-0.7,1.8,2470.048,13.34,0.012,221.6
2019-09-21T02:51:58,42.805,6.029,-0.036,-0.005,-0.01,104.0,108.0,99.0,13.3,1505.4,326.7,-0.7,1.8,2470.055,13.34,0.036,262.1
2019-09-21T02:54:59,42.805,6.029,-0.051,0.008,0.001,103.0,108.0,101.0,13.4,1505.4,326.3,-0.7,1.8,2470.047,13.34,0.051,278.9
2019-09-21T02:58:00,42.805,6.029,-0.045,-0.006,0.011,103.0,108.0,100.0,13.3,1505.4,328.6,-0.7,1.8,2470.055,13.34,0.045,262.4
2019-09-21T03:01:01,42.805,6.029,-0.02,-0.004,0.005,100.0,109.0,101.0,13.4,1505.4,328.3,-0.7,1.8,2470.047,13.34,0.02,258.7
2019-09-21T03:04:02,42.805,6.029,-0.038,0.003,-0.016,101.0,109.0,99.0,13.3,1505.4,324.9,-0.7,1.8,2470.052,13.34,0.038,274.5
2019-09-21T03:07:03,42.805,6.029,-0.016,0.0,0.011,103.0,109.0,100.0,13.4,1505.4,325.1,-0.7,1.8,2470.049,13.34,0.016,270.0
2019-09-21T03:10:04,42.805,6.029,-0.049,0.014,-0.015,101.0,109.0,100.0,13.3,1505.4,325.1,-0.7,1.8,2469.999,13.34,0.05,285.9
2019-09-21T03:13:05,42.805,6.029,-0.041,0.004,0.006,102.0,109.0,99.0,13.3,1505.4,325.0,-0.7,1.8,2470.033,13.34,0.041,275.6
2019-09-21T03:16:06,42.805,6.029,-0.021,-0.001,-0.006,102.0,108.0,100.0,13.4,1505.4,325.4,-0.7,1.8,2470.062,13.34,0.021,267.3
2019-09-21T03:19:07,42.805,6.029,-0.023,-0.001,0.027,101.0,109.0,101.0,13.4,1505.4,326.8,-0.7,1.8,2470.03,13.34,0.023,267.5
2019-09-21T03:22:08,42.805,6.029,-0.026,0.005,0.024,102.0,109.0,99.0,13.4,1505.4,323.4,-0.7,1.8,2469.993,13.34,0.026,280.9
2019-09-21T03:25:09,42.805,6.029,-0.011,-0.005,-0.005,102.0,109.0,99.0,13.4,1505.4,328.8,-0.7,1.9,2470.037,13.34,0.012,245.6
2019-09-21T03:28:10,42.805,6.029,-0.037,-0.014,-0.007,103.0,110.0,98.0,13.4,1505.4,327.9,-0.7,1.9,2470.05,13.34,0.039,249.3
2019-09-21T03:31:11,42.805,6.029,-0.038,0.001,-0.021,102.0,108.0,100.0,13.4,1505.4,324.9,-0.7,1.8,2470.045,13.34,0.038,271.5
2019-09-21T03:34:12,42.805,6.029,-0.037,0.0,-0.003,103.0,108.0,98.0,13.4,1505.4,326.6,-0.7,1.8,2470.0,13.34,0.037,270.0
2019-09-21T03:37:13,42.805,6.029,-0.045,0.011,0.005,104.0,107.0,100.0,13.4,1505.4,324.5,-0.7,1.9,2470.025,13.34,0.046,283.7
2019-09-21T03:40:14,42.805,6.029,-0.033,-0.009,0.003,101.0,108.0,100.0,13.4,1505.4,327.7,-0.7,1.9,2470.028,13.34,0.034,254.7
2019-09-21T03:43:15,42.805,6.029,-0.027,-0.004,-0.019,103.0,107.0,100.0,13.4,1505.4,327.9,-0.7,1.8,2469.972,13.34,0.027,261.6
2019-09-21T03:46:16,42.805,6.029,-0.035,-0.018,-0.005,103.0,108.0,100.0,13.4,1505.4,327.7,-0.7,1.8,2470.007,13.34,0.039,242.8
2019-09-21T03:49:17,42.805,6.029,-0.051,0.019,-0.016,101.0,108.0,100.0,13.4,1505.4,326.3,-0.7,1.8,2470.013,13.34,0.054,290.4
2019-09-21T03:52:18,42.805,6.029,-0.018,0.004,0.036,102.0,107.0,100.0,13.4,1505.4,324.1,-0.7,1.8,2470.014,13.34,0.018,282.5
2019-09-21T03:55:19,42.805,6.029,-0.036,-0.004,-0.01,102.0,107.0,100.0,13.4,1505.4,325.4,-0.7,1.8,2470.023,13.34,0.036,263.7
2019-09-21T03:58:20,42.805,6.029,-0.03,-0.01,-0.003,103.0,108.0,99.0,13.4,1505.4,324.1,-0.7,1.8,2470.003,13.34,0.031,251.6
2019-09-21T04:01:21,42.805,6.029,-0.032,0.004,-0.001,102.0,108.0,99.0,13.4,1505.4,323.4,-0.7,1.9,2470.025,13.34,0.032,277.1
2019-09-21T04:04:22,42.805,6.029,-0.003,0.007,0.035,104.0,108.0,99.0,13.4,1505.4,324.5,-0.7,1.8,2469.979,13.34,0.007,336.8
2019-09-21T04:07:23,42.805,6.029,-0.038,-0.022,0.002,104.0,107.0,99.0,13.4,1505.4,328.4,-0.7,1.8,2470.037,13.34,0.043,239.9
2019-09-21T04:10:24,42.805,6.029,-0.046,0.021,-0.007,103.0,107.0,99.0,13.4,1505.4,325.5,-0.7,1.8,2470.024,13.34,0.05,294.5
2019-09-21T04:13:25,42.805,6.029,-0.032,0.006,-0.024,101.0,107.0,99.0,13.3,1505.4,324.4,-0.7,1.8,2470.033,13.34,0.032,280.6
2019-09-21T04:16:26,42.805,6.029,-0.032,0.007,-0.011,102.0,107.0,100.0,13.4,1505.4,326.8,-0.7,1.8,2469.974,13.34,0.032,282.3
2019-09-21T04:19:27,42.805,6.029,-0.045,0.002,-0.034,101.0,108.0,100.0,13.4,1505.4,325.3,-0.7,1.9,2470.033,13.34,0.045,272.5
2019-09-21T04:22:28,42.805,6.029,-0.035,0.008,-0.007,102.0,108.0,100.0,13.4,1505.4,324.9,-0.7,1.8,2470.06,13.34,0.035,282.9
2019-09-21T04:25:29,42.805,6.029,-0.023,-0.013,0.028,102.0,109.0,99.0,13.3,1505.4,328.1,-0.7,1.8,2469.98,13.34,0.026,240.5
2019-09-21T04:28:30,42.805,6.029,-0.04,0.011,-0.027,103.0,107.0,99.0,13.4,1505.4,323.2,-0.7,1.9,2470.017,13.34,0.041,285.4
2019-09-21T04:31:31,42.805,6.029,-0.041,-0.004,-0.013,103.0,107.0,99.0,13.3,1505.4,325.5,-0.7,1.8,2469.972,13.34,0.041,264.4
2019-09-21T04:34:32,42.805,6.029,-0.017,0.016,0.011,103.0,106.0,99.0,13.4,1505.4,327.2,-0.7,1.8,2470.023,13.34,0.023,313.3
2019-09-21T04:37:33,42.805,6.029,-0.052,-0.02,-0.007,103.0,108.0,99.0,13.4,1505.4,324.6,-0.7,1.8,2470.018,13.34,0.055,249.0
2019-09-21T04:40:34,42.805,6.029,-0.044,-0.013,-0.031,103.0,107.0,99.0,13.4,1505.4,324.8,-0.7,1.8,2469.988,13.34,0.045,253.5
2019-09-21T04:43:35,42.805,6.029,-0.03,0.007,-0.019,100.0,108.0,100.0,13.4,1505.4,324.9,-0.7,1.8,2470.022,13.34,0.03,283.1
2019-09-21T04:46:36,42.805,6.029,-0.004,-0.014,0.023,101.0,108.0,99.0,13.4,1505.4,328.3,-0.7,1.9,2469.979,13.34,0.014,195.9
2019-09-21T04:49:37,42.805,6.029,-0.057,-0.004,-0.025,102.0,108.0,101.0,13.3,1505.4,327.7,-0.7,1.8,2469.994,13.34,0.057,266.0
2019-09-21T04:52:38,42.805,6.029,-0.067,0.006,-0.016,100.0,108.0,100.0,13.4,1505.4,327.4,-0.7,1.8,2470.023,13.34,0.067,275.1
2019-09-21T04:55:39,42.805,6.029,-0.027,0.022,0.004,101.0,108.0,99.0,13.3,1505.4,328.0,-0.7,1.8,2470.015,13.34,0.034,309.2
2019-09-21T04:58:40,42.805,6.029,-0.019,-0.01,-0.028,102.0,108.0,99.0,13.3,1505.4,325.2,-0.8,1.8,2469.98,13.34,0.021,242.2
2019-09-21T05:01:41,42.805,6.029,-0.019,0.01,-0.001,103.0,108.0,100.0,13.4,1505.4,325.2,-0.7,1.8,2469.983,13.34,0.021,297.8
2019-09-21T05:04:42,42.805,6.029,-0.03,0.007,-0.023,102.0,109.0,100.0,13.4,1505.4,325.7,-0.7,1.8,2469.963,13.34,0.03,283.1
2019-09-21T05:07:43,42.805,6.029,-0.07,-0.002,-0.003,101.0,110.0,100.0,13.4,1505.4,325.4,-0.7,1.8,2470.026,13.34,0.07,268.4
2019-09-21T05:10:44,42.805,6.029,-0.058,-0.002,-0.023,103.0,108.0,100.0,13.3,1505.4,326.5,-0.7,1.8,2470.024,13.34,0.058,268.0
2019-09-21T05:13:45,42.805,6.029,-0.048,0.006,-0.005,102.0,107.0,99.0,13.4,1505.4,325.8,-0.8,1.8,2469.97,13.34,0.048,277.1
2019-09-21T05:16:46,42.805,6.029,-0.009,-0.002,0.022,103.0,107.0,99.0,13.3,1505.4,327.9,-0.7,1.8,2470.01,13.34,0.009,257.5
2019-09-21T05:19:47,42.805,6.029,-0.044,-0.012,-0.002,105.0,108.0,99.0,13.4,1505.4,328.0,-0.7,1.8,2469.986,13.34,0.045,254.7
2019-09-21T05:22:48,42.805,6.029,-0.044,0.004,-0.026,102.0,109.0,100.0,13.4,1505.4,325.2,-0.7,1.8,2470.014,13.34,0.044,275.2
2019-09-21T05:25:49,42.805,6.029,-0.041,0.004,-0.037,103.0,109.0,99.0,13.3,1505.4,326.9,-0.8,1.9,2469.969,13.34,0.041,275.6
2019-09-21T05:28:50,42.805,6.029,-0.015,0.004,0.001,103.0,109.0,99.0,13.4,1505.4,324.9,-0.7,1.8,2470.023,13.34,0.015,284.9
2019-09-21T05:31:51,42.805,6.029,-0.047,0.008,0.034,104.0,109.0,100.0,13.4,1505.4,326.8,-0.7,1.8,2470.021,13.34,0.047,279.7
2019-09-21T05:34:52,42.805,6.029,-0.028,-0.001,-0.001,103.0,110.0,99.0,13.4,1505.4,327.7,-0.7,1.8,2469.982,13.34,0.028,268.0
2019-09-21T05:37:53,42.805,6.029,-0.013,0.006,0.003,102.0,110.0,101.0,13.3,1505.4,327.3,-0.7,1.8,2470.008,13.34,0.014,294.8
2019-09-21T05:40:54,42.805,6.029,-0.036,0.004,0.009,103.0,110.0,100.0,13.4,1505.4,327.6,-0.7,1.9,2470.018,13.34,0.036,276.3
2019-09-21T05:43:55,42.805,6.029,-0.045,0.016,0.028,103.0,108.0,100.0,13.4,1505.4,324.0,-0.7,1.8,2469.988,13.34,0.047,289.6
2019-09-21T05:46:56,42.805,6.029,-0.023,-0.009,-0.006,102.0,109.0,100.0,13.3,1505.4,327.2,-0.7,1.9,2469.993,13.34,0.024,248.6
2019-09-21T05:49:57,42.805,6.029,-0.037,-0.016,-0.026,104.0,109.0,100.0,13.4,1505.4,324.1,-0.7,1.8,2470.013,13.34,0.04,246.6
2019-09-21T05:52:58,42.805,6.029,-0.027,0.009,-0.006,101.0,110.0,99.0,13.4,1505.4,328.8,-0.7,1.8,2470.026,13.34,0.028,288.4
2019-09-21T05:55:59,42.805,6.029,-0.02,0.013,-0.015,104.0,108.0,99.0,13.3,1505.4,323.7,-0.7,1.8,2470.011,13.34,0.023,303.0
2019-09-21T05:59:00,42.805,6.029,-0.021,0.013,-0.013,102.0,110.0,101.0,13.3,1505.4,324.3,-0.7,1.9,2470.014,13.34,0.024,301.8
2019-09-21T06:02:01,42.805,6.029,-0.038,-0.015,-0.021,103.0,109.0,100.0,13.4,1505.4,327.4,-0.7,1.8,2469.982,13.34,0.04,248.5
2019-09-21T06:05:02,42.805,6.029,-0.03,0.002,-0.007,101.0,109.0,100.0,13.4,1505.4,325.9,-0.7,1.8,2470.028,13.34,0.03,273.8
2019-09-21T06:08:03,42.805,6.029,-0.025,0.008,-0.005,101.0,109.0,100.0,13.3,1505.4,324.6,-0.7,1.8,2470.01,13.34,0.026,287.7
2019-09-21T06:11:04,42.805,6.029,-0.036,0.007,-0.028,103.0,109.0,99.0,13.4,1505.4,326.6,-0.7,1.9,2470.003,13.34,0.036,281.0
2019-09-21T06:14:05,42.805,6.029,-0.024,0.017,0.003,101.0,110.0,100.0,13.3,1505.4,327.0,-0.7,1.8,2470.037,13.34,0.029,305.3
2019-09-21T06:17:06,42.805,6.029,-0.036,-0.001,-0.003,103.0,109.0,100.0,13.4,1505.4,328.1,-0.7,1.8,2470.014,13.34,0.036,268.4
2019-09-21T06:20:07,42.805,6.029,-0.041,0.007,-0.012,103.0,109.0,99.0,13.3,1505.4,326.6,-0.7,1.8,2469.98,13.34,0.041,279.7
2019-09-21T06:23:08,42.805,6.029,-0.044,-0.009,-0.024,102.0,108.0,99.0,13.4,1505.3,324.8,-0.7,1.9,2470.02,13.33,0.044,258.4
2019-09-21T06:26:09,42.805,6.029,-0.019,-0.002,-0.008,102.0,109.0,100.0,13.4,1505.3,328.5,-0.7,1.8,2470.002,13.33,0.019,264.0
2019-09-21T06:29:10,42.805,6.029,-0.025,0.019,0.02,102.0,109.0,100.0,13.4,1505.3,325.4,-0.7,1.8,2470.016,13.33,0.031,307.2
2019-09-21T06:32:11,42.805,6.029,-0.015,0.002,-0.008,101.0,110.0,99.0,13.3,1505.3,323.6,-0.7,1.8,2470.034,13.33,0.015,277.6
2019-09-21T06:35:12,42.805,6.029,-0.031,0.005,-0.004,102.0,109.0,100.0,13.4,1505.3,324.1,-0.7,1.8,2470.016,13.33,0.031,279.2
2019-09-21T06:38:13,42.805,6.029,-0.009,0.012,0.004,102.0,108.0,99.0,13.3,1505.3,324.8,-0.7,1.8,2469.995,13.33,0.015,323.1
2019-09-21T06:41:14,42.805,6.029,-0.035,-0.005,-0.014,103.0,109.0,99.0,13.4,1505.3,326.9,-0.7,1.8,2470.024,13.33,0.035,261.9
2019-09-21T06:44:15,42.805,6.029,-0.047,0.023,-0.006,102.0,111.0,100.0,13.4,1505.3,326.8,-0.7,1.8,2470.026,13.33,0.052,296.1
2019-09-21T06:47:16,42.805,6.029,-0.047,0.03,0.008,101.0,109.0,99.0,13.3,1505.3,325.7,-0.7,1.8,2470.039,13.33,0.055,302.6
2019-09-21T06:50:17,42.805,6.029,-0.016,0.022,0.03,102.0,110.0,99.0,13.3,1505.3,325.0,-0.7,1.8,2470.081,13.33,0.027,324.0
2019-09-21T06:53:18,42.805,6.029,-0.046,0.01,-0.015,102.0,108.0,100.0,13.4,1505.3,325.3,-0.7,1.9,2470.021,13.33,0.047,282.3
2019-09-21T06:56:19,42.805,6.029,-0.04,-0.003,-0.031,101.0,110.0,100.0,13.4,1505.3,327.6,-0.7,1.9,2470.028,13.33,0.04,265.7
2019-09-21T06:59:20,42.805,6.029,-0.044,-0.003,-0.029,103.0,109.0,99.0,13.4,1505.3,324.3,-0.7,1.9,2470.067,13.33,0.044,266.1
2019-09-21T07:02:21,42.805,6.029,-0.042,-0.014,-0.012,102.0,110.0,99.0,13.4,1505.3,324.5,-0.7,1.8,2470.031,13.33,0.044,251.6
2019-09-21T07:05:22,42.805,6.029,-0.022,-0.015,-0.033,101.0,108.0,100.0,13.3,1505.3,324.5,-0.7,1.8,2470.031,13.33,0.026,235.7
2019-09-21T07:08:23,42.805,6.029,-0.02,0.008,-0.017,101.0,108.0,99.0,13.4,1505.3,327.1,-0.7,1.8,2470.025,13.33,0.021,291.8
2019-09-21T07:11:24,42.805,6.029,-0.031,0.002,-0.012,101.0,107.0,99.0,13.4,1505.3,325.6,-0.7,1.9,2470.009,13.33,0.031,273.7
2019-09-21T07:14:25,42.805,6.029,-0.057,-0.002,-0.041,101.0,109.0,99.0,13.3,1505.3,326.2,-0.7,1.9,2470.077,13.33,0.057,268.0
2019-09-21T07:17:26,42.805,6.029,-0.034,-0.001,-0.023,102.0,108.0,99.0,13.4,1505.3,325.7,-0.7,1.9,2470.039,13.33,0.034,268.3
2019-09-21T07:20:27,42.805,6.029,-0.027,-0.002,-0.02,102.0,108.0,99.0,13.4,1505.3,326.8,-0.8,1.8,2470.027,13.33,0.027,265.8
2019-09-21T07:23:28,42.805,6.029,-0.01,0.013,0.003,102.0,108.0,99.0,13.4,1505.3,323.7,-0.7,1.8,2470.023,13.33,0.016,322.4
2019-09-21T07:26:29,42.805,6.029,-0.044,0.01,0.008,100.0,107.0,99.0,13.4,1505.3,323.5,-0.7,1.8,2470.022,13.33,0.045,282.8
2019-09-21T07:29:30,42.805,6.029,-0.023,0.004,0.02,102.0,107.0,99.0,13.4,1505.3,325.6,-0.8,1.8,2470.043,13.33,0.023,279.9
2019-09-21T07:32:31,42.805,6.029,-0.02,0.006,0.021,101.0,107.0,99.0,13.3,1505.3,325.8,-0.7,1.8,2470.038,13.33,0.02,286.7
2019-09-21T07:35:32,42.805,6.029,-0.031,0.009,-0.009,103.0,107.0,99.0,13.4,1505.3,326.8,-0.8,1.8,2470.044,13.33,0.032,286.2
2019-09-21T07:38:33,42.805,6.029,-0.021,-0.002,0.024,103.0,107.0,99.0,13.4,1505.3,326.7,-0.7,1.9,2470.026,13.33,0.021,264.6
2019-09-21T07:41:34,42.805,6.029,-0.041,-0.002,0.025,100.0,107.0,100.0,13.4,1505.3,323.2,-0.7,1.8,2470.062,13.33,0.041,267.2
2019-09-21T07:44:35,42.805,6.029,-0.039,0.009,-0.032,100.0,108.0,101.0,13.4,1505.3,325.4,-0.7,1.8,2470.074,13.33,0.04,283.0
2019-09-21T07:47:36,42.805,6.029,-0.033,0.011,0.027,102.0,109.0,98.0,13.3,1505.3,324.8,-0.7,1.8,2470.061,13.33,0.034,288.4
2019-09-21T07:50:37,42.805,6.029,-0.031,0.005,0.008,101.0,111.0,98.0,13.4,1505.3,327.9,-0.7,1.8,2470.071,13.33,0.031,279.2
2019-09-21T07:53:38,42.805,6.029,-0.045,-0.019,-0.002,101.0,111.0,99.0,13.4,1505.3,326.4,-0.7,1.8,2470.05,13.33,0.048,247.1
2019-09-21T07:56:39,42.805,6.029,-0.023,-0.011,-0.017,101.0,107.0,99.0,13.4,1505.3,327.2,-0.7,1.9,2470.086,13.33,0.025,244.4
2019-09-21T07:59:40,42.805,6.029,-0.022,0.0,0.0,101.0,107.0,99.0,13.4,1505.3,327.1,-0.7,1.8,2470.084,13.33,0.022,270.0
2019-09-21T08:02:41,42.805,6.029,-0.034,-0.009,-0.047,102.0,108.0,99.0,13.3,1505.3,326.5,-0.7,1.8,2470.074,13.33,0.035,255.2
2019-09-21T08:05:42,42.805,6.029,-0.039,0.014,0.007,101.0,108.0,99.0,13.4,1505.3,325.7,-0.7,1.9,2470.113,13.33,0.041,289.7
2019-09-21T08:08:43,42.805,6.029,-0.03,0.035,0.017,101.0,107.0,99.0,13.4,1505.3,326.7,-0.7,1.8,2470.075,13.33,0.046,319.4
2019-09-21T08:11:44,42.805,6.029,0.002,-0.006,0.022,102.0,108.0,99.0,13.3,1505.3,326.1,-0.7,1.8,2470.082,13.33,0.006,161.6
2019-09-21T08:14:45,42.805,6.029,-0.01,0.013,0.022,102.0,110.0,99.0,13.3,1505.3,328.1,-0.7,1.8,2470.055,13.33,0.016,322.4
2019-09-21T08:17:46,42.805,6.029,-0.032,0.001,0.025,101.0,107.0,99.0,13.4,1505.3,325.6,-0.7,1.8,2470.087,13.33,0.032,271.8
2019-09-21T08:20:47,42.805,6.029,-0.029,0.016,-0.015,100.0,109.0,99.0,13.4,1505.3,324.8,-0.8,1.8,2470.081,13.33,0.033,298.9
2019-09-21T08:23:48,42.805,6.029,-0.045,0.0,-0.017,101.0,109.0,98.0,13.4,1505.3,324.4,-0.7,1.8,2470.069,13.33,0.045,270.0
2019-09-21T08:26:49,42.805,6.029,-0.029,0.019,-0.009,102.0,107.0,99.0,13.4,1505.3,326.7,-0.7,1.9,2470.08,13.33,0.034,303.2
2019-09-21T08:29:50,42.805,6.029,-0.032,-0.008,0.002,101.0,109.0,99.0,13.4,1505.3,323.5,-0.7,1.9,2470.078,13.33,0.032,256.0
2019-09-21T08:32:51,42.805,6.029,-0.051,0.017,-0.022,100.0,108.0,99.0,13.4,1505.3,327.9,-0.7,1.8,2470.108,13.33,0.053,288.4
2019-09-21T08:35:52,42.805,6.029,-0.037,0.013,-0.02,101.0,109.0,99.0,13.4,1505.3,327.6,-0.8,1.8,2470.092,13.33,0.039,289.4
2019-09-21T08:38:53,42.805,6.029,-0.027,0.01,0.007,101.0,109.0,99.0,13.3,1505.3,325.6,-0.7,1.8,2470.063,13.33,0.028,290.3
2019-09-21T08:41:54,42.805,6.029,-0.054,-0.01,-0.036,99.0,108.0,99.0,13.4,1505.3,326.6,-0.7,1.8,2470.111,13.33,0.054,259.5
2019-09-21T08:44:55,42.805,6.029,-0.034,0.006,-0.026,101.0,109.0,99.0,13.3,1505.3,323.2,-0.7,1.9,2470.087,13.33,0.034,280.0
2019-09-21T08:47:56,42.805,6.029,-0.031,-0.01,-0.051,101.0,108.0,98.0,13.3,1505.3,326.9,-0.7,1.9,2470.115,13.33,0.032,252.1
2019-09-21T08:50:57,42.805,6.029,-0.019,0.004,-0.016,101.0,108.0,98.0,13.3,1505.3,328.0,-0.7,1.8,2470.067,13.33,0.019,281.9
2019-09-21T08:53:58,42.805,6.029,-0.03,0.0,-0.005,102.0,109.0,99.0,13.4,1505.3,327.6,-0.7,1.8,2470.055,13.33,0.03,270.0
2019-09-21T08:56:59,42.805,6.029,-0.017,0.017,-0.007,100.0,109.0,100.0,13.4,1505.3,325.5,-0.7,1.9,2470.137,13.33,0.024,315.0
2019-09-21T09:00:00,42.805,6.029,-0.051,-0.011,-0.011,104.0,108.0,99.0,13.4,1505.3,323.1,-0.7,1.8,2470.099,13.33,0.052,257.8
2019-09-21T09:03:01,42.805,6.029,-0.039,0.006,0.0,101.0,108.0,100.0,13.4,1505.3,324.0,-0.7,1.8,2470.106,13.33,0.039,278.7
2019-09-21T09:06:02,42.805,6.029,-0.022,0.005,0.026,101.0,109.0,99.0,13.4,1505.3,325.7,-0.7,1.8,2470.1,13.33,0.022,282.8
2019-09-21T09:09:03,42.805,6.029,-0.019,-0.001,-0.017,101.0,108.0,99.0,13.3,1505.3,324.8,-0.7,1.8,2470.127,13.33,0.019,267.0
2019-09-21T09:12:04,42.805,6.029,-0.025,0.009,-0.005,102.0,108.0,99.0,13.4,1505.3,326.5,-0.7,1.8,2470.121,13.33,0.026,289.8
2019-09-21T09:15:05,42.805,6.029,-0.041,-0.005,0.013,103.0,108.0,99.0,13.3,1505.3,326.6,-0.7,1.8,2470.144,13.33,0.041,263.0
2019-09-21T09:18:06,42.805,6.029,-0.055,0.022,-0.026,102.0,108.0,99.0,13.3,1505.3,326.3,-0.7,1.8,2470.178,13.33,0.059,291.8
2019-09-21T09:21:07,42.805,6.029,-0.039,-0.01,-0.021,100.0,108.0,99.0,13.4,1505.3,326.9,-0.7,1.9,2470.117,13.33,0.04,255.6
2019-09-21T09:24:08,42.805,6.029,-0.012,0.004,0.001,102.0,107.0,99.0,13.4,1505.3,327.2,-0.7,1.9,2470.11,13.33,0.012,288.4
2019-09-21T09:27:09,42.805,6.029,-0.043,0.012,-0.032,103.0,107.0,98.0,13.4,1505.3,324.9,-0.7,1.8,2470.133,13.33,0.044,285.6
2019-09-21T09:30:10,42.805,6.029,-0.016,-0.014,0.005,102.0,108.0,98.0,13.4,1505.3,324.2,-0.7,1.8,2470.157,13.33,0.021,228.8
2019-09-21T09:33:11,42.805,6.029,-0.039,0.006,0.015,101.0,110.0,99.0,13.3,1505.3,325.8,-0.7,1.8,2470.095,13.33,0.039,278.7
2019-09-21T09:36:12,42.805,6.029,-0.024,0.014,0.0,101.0,107.0,99.0,13.4,1505.3,323.2,-0.7,1.8,2470.134,13.33,0.027,300.3